Terminal Aerodrome Forecast
Issued by NWS Atlanta, GA

Home | Current Version | Previous Version | Text Only | Print | Product List | Glossary On
Versions: 1 2 3 4 5 6 7 8 9 10 11 12 13 14 15 16 17
000
FTUS42 KFFC 230100 AAA
TAFMCN
TAF AMD
KMCN 230136Z 2302/2324 08003KT P6SM SCT010
     FM231000 04005KT 4SM BR SCT008
     FM231300 04007KT P6SM SCT010
     FM231500 06009G16KT P6SM SCT020=

USA.gov is the U.S. government's official web portal to all federal, state and local government web resources and services.